Stations météo

Publicité
Calvi, France (7754): Température de l'air & dewpoint: 10.08.2017 17:00:00 - 16.08.2017 17:00:00 (CEST)Calvi, France (7754): Température de l'air 5cm: 10.08.2017 17:00:00 - 16.08.2017 17:00:00 (CEST)Calvi, France (7754): Vitesse du vent & gusts: 10.08.2017 17:00:00 - 16.08.2017 17:00:00 (CEST)Calvi, France (7754): Direction du vent: 10.08.2017 17:00:00 - 16.08.2017 17:00:00 (CEST)Calvi, France (7754): reduced air pressure: 10.08.2017 17:00:00 - 16.08.2017 17:00:00 (CEST)Calvi, France (7754): visibility: 10.08.2017 17:00:00 - 16.08.2017 17:00:00 (CEST)Calvi, France (7754): Ensoleillement: 10.08.2017 17:00:00 - 16.08.2017 17:00:00 (CEST)Calvi, France (7754): Quantités de précipitations: 10.08.2017 17:00:00 - 16.08.2017 17:00:00 (CEST)
Date & Time tt [°C] td [°C] tt 5cm [°C] ff [km/h] ff [knt] fx [km/h] fx [knt] dd ppp [hPa] vv [km] sd [min] rr [mm]
16.08.2017 17:00:00 28,4 13,9 34,1 15 8 26 14 N 1017,6 60 60 0,0
16.08.2017 16:00:00 28,8 14,6 34,2 14 8 31 17 N 1017,7 60 60 0,0
16.08.2017 15:00:00 28,8 13,5 34,1 18 10 27 15 N 1018,3 60 60 0,0
16.08.2017 14:00:00 28,9 13,9 32,8 17 9 29 16 N 1018,4 60 60 0,0
16.08.2017 13:00:00 28,8 13,9 34,1 19 10 30 16 N 1018,7 60 60 -
16.08.2017 12:00:00 28,7 17,2 32,1 16 9 34 18 N 1019,0 60 56 0,0
16.08.2017 11:00:00 29,7 13,0 32,3 21 12 31 17 N 1018,7 60 60 0,0
16.08.2017 10:00:00 30,5 8,2 29,2 9 5 16 9 NE 1018,6 60 55 0,0
16.08.2017 09:00:00 27,9 10,1 26,1 10 5 16 8 N 1018,6 59 47 0,0
16.08.2017 08:00:00 25,2 9,1 18,6 13 7 17 9 S 1018,3 10 60 0,0
16.08.2017 07:00:00 18,5 10,1 17,2 10 5 16 9 S 1018,5 60 0 0,0
16.08.2017 06:00:00 18,4 10,5 17,7 14 7 16 9 SSE 1018,3 60 0 0,0
16.08.2017 05:00:00 18,3 11,4 17,5 4 2 15 8 S 1018,7 60 0 0,0
16.08.2017 04:00:00 19,2 11,7 18,2 10 5 16 9 S 1019,0 57 0 0,0
16.08.2017 03:00:00 18,6 10,9 18,4 10 5 14 8 SE 1019,5 59 0 -
16.08.2017 02:00:00 18,8 10,6 17,8 8 5 11 6 S 1019,6 59 0 0,0
16.08.2017 01:00:00 18,8 10,4 17,9 4 2 8 4 SSW 1019,6 29 0 -
16.08.2017 00:00:00 20,7 11,1 19,7 6 3 16 8 SSE 1019,2 60 0 -
15.08.2017 23:00:00 21,5 11,2 21,2 12 6 16 9 SSE 1019,0 60 0 0,0
15.08.2017 22:00:00 22,2 11,3 21,9 9 5 15 8 SSE 1019,3 60 0 0,0
15.08.2017 21:00:00 23,6 12,6 23,5 10 5 11 6 SSE 1018,8 52 0 0,0
15.08.2017 20:00:00 26,7 13,4 26,9 3 2 16 9 N 1018,9 60 44 0,0
15.08.2017 19:00:00 27,8 15,1 30,3 10 5 20 11 NNW 1018,5 58 60 0,0
15.08.2017 18:00:00 28,4 15,0 32,3 11 6 22 12 NNW 1019,1 45 60 0,0
15.08.2017 17:00:00 28,5 14,0 33,6 14 8 23 13 NNW 1019,3 60 60 0,0
15.08.2017 16:00:00 28,7 12,6 34,9 13 7 23 13 NNW 1019,7 60 60 0,0
15.08.2017 15:00:00 28,0 16,0 33,2 20 11 31 17 N 1020,2 60 60 0,0
15.08.2017 14:00:00 28,1 17,0 32,3 21 12 33 18 N 1020,2 60 60 0,0
15.08.2017 13:00:00 28,2 15,8 32,6 18 10 28 15 N 1020,4 60 60 0,0
15.08.2017 12:00:00 27,9 17,7 32,1 17 9 27 15 NNW 1020,2 60 60 0,0
15.08.2017 11:00:00 27,2 17,1 30,6 14 8 20 11 NNW 1020,3 60 60 0,0
15.08.2017 10:00:00 27,7 15,0 28,7 11 6 18 10 N 1020,2 60 60 0,0
15.08.2017 09:00:00 26,8 13,9 25,5 8 4 13 7 N 1020,4 48 60 0,0
15.08.2017 08:00:00 22,9 11,6 17,6 2 1 14 8 S 1020,4 58 60 0,0
15.08.2017 07:00:00 17,7 10,6 17,2 8 5 16 9 SSE 1020,0 20 0 0,0
15.08.2017 06:00:00 17,3 11,1 15,9 15 8 17 9 S 1020,1 60 0 0,0
15.08.2017 05:00:00 17,1 11,1 16,5 4 2 10 5 S 1020,0 60 0 0,0
15.08.2017 04:00:00 18,3 11,8 17,7 6 4 16 8 S 1019,9 60 0 0,0
15.08.2017 03:00:00 18,6 11,4 17,6 13 7 15 8 S 1020,0 60 0 0,0
15.08.2017 02:00:00 19,6 11,1 18,8 11 6 16 9 S 1020,1 60 0 0,0
15.08.2017 01:00:00 19,9 11,1 18,1 11 6 14 7 S 1020,1 43 0 0,0
15.08.2017 00:00:00 18,5 10,3 18,1 4 2 9 5 S 1020,4 60 0 -
14.08.2017 23:00:00 20,3 11,2 19,6 6 3 11 6 S 1020,1 60 0 0,0
14.08.2017 22:00:00 22,3 12,3 21,8 7 4 10 5 S 1020,0 60 0 0,0
14.08.2017 21:00:00 23,8 11,8 23,3 4 2 13 7 W 1019,4 60 0 0,0
14.08.2017 20:00:00 25,9 13,1 26,1 9 5 16 8 NNW 1019,0 60 45 0,0
14.08.2017 19:00:00 27,7 12,1 29,8 10 5 19 10 NW 1018,6 60 60 0,0
14.08.2017 18:00:00 27,1 15,8 31,5 13 7 26 14 NNW 1019,0 60 60 -
14.08.2017 17:00:00 27,8 14,8 32,6 15 8 25 14 NNW 1019,1 60 60 0,0
14.08.2017 16:00:00 28,1 14,3 33,3 14 8 28 15 NNW 1019,3 60 60 0,0
14.08.2017 15:00:00 27,7 15,4 32,5 17 9 28 15 NNW 1019,5 60 60 0,0
14.08.2017 14:00:00 27,9 17,1 31,9 18 10 30 16 NNW 1019,5 60 60 0,0
14.08.2017 13:00:00 27,5 16,5 31,9 18 10 29 16 NNW 1019,4 60 60 0,0
14.08.2017 12:00:00 27,1 15,5 31,6 17 9 26 14 NNW 1019,4 60 60 0,0
14.08.2017 11:00:00 27,3 14,7 29,6 13 7 22 12 NNW 1019,4 60 60 0,0
14.08.2017 10:00:00 26,4 15,1 28,5 10 5 16 9 NNW 1019,3 42 60 0,0
14.08.2017 09:00:00 25,6 16,4 23,7 2 1 8 4 NNE 1019,1 46 60 0,0
14.08.2017 08:00:00 21,9 15,7 18,1 8 4 16 9 S 1019,1 52 60 -
14.08.2017 07:00:00 17,9 14,6 17,1 8 4 13 7 S 1019,1 52 0 0,0
14.08.2017 06:00:00 17,8 14,3 17,2 5 3 16 8 SSW 1018,7 10 0 0,0
14.08.2017 05:00:00 18,8 14,9 17,4 9 5 14 8 S 1018,5 60 0 0,0
14.08.2017 04:00:00 18,6 14,3 17,7 10 6 14 7 S 1018,7 59 0 0,0
14.08.2017 03:00:00 18,2 13,7 17,6 7 4 11 6 S 1018,9 60 0 0,0
14.08.2017 02:00:00 18,0 13,5 17,4 9 5 11 6 SSW 1019,0 58 0 0,0
14.08.2017 01:00:00 19,0 13,8 18,4 2 1 6 4 S 1018,6 32 0 0,0
14.08.2017 00:00:00 20,2 14,3 19,6 2 1 10 5 SSW 1018,4 58 0 0,0
13.08.2017 23:00:00 21,1 15,2 20,2 8 4 13 7 S 1018,3 59 0 0,0
13.08.2017 22:00:00 21,2 15,3 21,1 11 6 13 7 SSE 1018,2 59 0 0,0
13.08.2017 21:00:00 22,6 15,9 22,1 6 4 10 5 SW 1018,1 52 0 0,0
13.08.2017 20:00:00 24,4 16,6 24,9 10 5 16 9 N 1017,9 19 46 0,0
13.08.2017 19:00:00 25,9 17,0 27,1 12 7 19 11 N 1017,6 48 42 0,0
13.08.2017 18:00:00 26,5 17,6 28,8 11 6 25 13 N 1017,7 20 54 0,0
13.08.2017 17:00:00 25,4 17,3 27,8 17 9 31 17 N 1018,0 51 41 0,0
13.08.2017 16:00:00 25,9 18,3 29,1 21 12 35 19 N 1018,0 50 45 0,0
13.08.2017 15:00:00 27,5 18,5 31,9 23 13 37 20 N 1018,1 20 60 0,0
13.08.2017 14:00:00 27,5 17,7 32,1 26 14 32 17 N 1018,1 10 60 0,0
13.08.2017 13:00:00 28,1 11,6 32,9 23 12 37 20 N 1018,2 60 60 0,0
13.08.2017 12:00:00 28,0 15,3 31,7 22 12 31 17 N 1018,1 60 60 0,0
13.08.2017 11:00:00 29,1 6,5 31,4 13 7 20 11 NNW 1017,7 60 60 0,0
13.08.2017 10:00:00 27,9 4,8 28,5 6 3 11 6 NE 1017,5 54 60 0,0
13.08.2017 09:00:00 25,6 12,4 23,9 0 0 7 4 N 1017,6 47 60 0,0
13.08.2017 08:00:00 21,4 6,9 16,5 4 2 10 5 S 1017,2 42 60 -
13.08.2017 07:00:00 17,3 6,2 15,7 8 5 18 10 SSW 1017,0 60 0 0,0
13.08.2017 06:00:00 19,1 6,2 15,6 12 6 17 9 S 1016,9 60 0 0,0
13.08.2017 05:00:00 16,7 7,1 15,7 8 4 14 8 SSW 1017,2 60 0 0,0
13.08.2017 04:00:00 17,7 8,5 16,7 4 2 19 10 SSW 1017,7 60 0 0,0
13.08.2017 03:00:00 17,3 9,0 15,7 10 5 15 8 S 1017,9 60 0 0,0
13.08.2017 02:00:00 17,8 10,4 16,4 10 5 13 7 S 1018,2 60 0 0,0
13.08.2017 01:00:00 17,6 10,2 16,9 7 4 15 8 SSW 1018,2 60 0 0,0
13.08.2017 00:00:00 17,9 11,0 17,6 11 6 14 8 SSE 1018,3 60 0 0,0
12.08.2017 23:00:00 18,7 11,7 17,9 5 3 9 5 S 1018,2 60 0 0,0
12.08.2017 22:00:00 20,2 12,7 19,6 4 2 9 5 SE 1017,8 58 0 0,0
12.08.2017 21:00:00 21,9 14,8 21,6 9 5 14 8 E 1017,0 60 0 0,0
12.08.2017 20:00:00 24,8 9,1 25,1 3 2 16 9 NNW 1016,5 18 47 -
12.08.2017 19:00:00 26,2 6,8 29,4 8 4 26 14 N 1016,0 60 60 0,0
12.08.2017 18:00:00 26,9 11,4 31,6 16 9 26 14 N 1015,9 60 60 0,0
12.08.2017 17:00:00 27,4 6,7 33,3 13 7 24 13 N 1016,0 60 60 0,0
12.08.2017 16:00:00 27,9 4,8 33,7 11 6 25 13 NW 1015,9 60 60 0,0
12.08.2017 15:00:00 28,0 8,8 31,7 13 7 27 15 WNW 1016,1 60 60 0,0
12.08.2017 14:00:00 27,3 8,2 31,5 14 8 28 15 WNW 1016,0 60 60 0,0
12.08.2017 13:00:00 27,8 10,5 32,0 14 8 29 16 WSW 1016,0 20 60 0,0
12.08.2017 12:00:00 28,1 7,9 30,3 5 3 23 13 S 1015,7 60 60 0,0
12.08.2017 11:00:00 26,3 10,0 27,3 13 7 27 15 SSW 1015,7 60 60 0,0
12.08.2017 10:00:00 25,0 10,5 25,2 19 10 28 15 SSW 1015,5 60 60 0,0
12.08.2017 09:00:00 23,5 10,2 23,0 17 9 29 15 S 1015,1 57 60 0,0
12.08.2017 08:00:00 22,0 10,5 19,9 18 10 36 19 S 1014,6 39 60 0,0
12.08.2017 07:00:00 20,1 10,5 19,3 19 10 35 19 S 1014,1 58 0 0,0
12.08.2017 06:00:00 20,1 10,5 19,2 14 8 38 20 SSE 1014,0 60 0 0,0
12.08.2017 05:00:00 20,5 10,6 19,5 16 9 34 18 S 1013,5 40 0 0,0
12.08.2017 04:00:00 20,7 10,5 20,1 20 11 37 20 S 1014,1 59 0 0,0
12.08.2017 03:00:00 20,8 11,4 20,2 21 11 41 22 S 1014,2 58 0 0,0
12.08.2017 02:00:00 20,9 11,8 20,5 18 10 42 23 SSW 1014,5 53 0 0,0
12.08.2017 01:00:00 21,2 12,1 20,8 21 11 51 28 SSW 1015,0 55 0 -
12.08.2017 00:00:00 21,4 11,7 21,2 24 13 43 23 S 1015,3 56 0 0,0
11.08.2017 23:00:00 21,4 11,4 20,9 24 13 45 25 SSW 1015,6 59 0 0,0
11.08.2017 22:00:00 21,3 11,6 21,0 18 10 41 22 S 1015,9 60 0 0,0
11.08.2017 21:00:00 21,2 11,2 21,0 23 12 43 23 S 1015,7 60 0 0,0
11.08.2017 20:00:00 21,2 10,9 21,4 22 12 48 26 S 1015,7 59 0 0,0
11.08.2017 19:00:00 21,4 10,2 21,8 24 13 54 29 S 1016,1 59 13 0,0
11.08.2017 18:00:00 21,6 11,0 22,2 32 17 65 35 SSW 1015,8 53 35 0,0
11.08.2017 17:00:00 23,5 10,5 24,3 40 21 71 38 SSW 1014,9 41 48 0,0
11.08.2017 16:00:00 23,6 9,6 24,7 44 24 79 43 SSW 1015,1 20 50 0,0
11.08.2017 15:00:00 23,2 9,6 25,0 43 23 73 40 SSW 1015,0 29 57 0,0
11.08.2017 14:00:00 24,2 10,5 25,9 39 21 65 35 SSW 1015,4 20 60 0,0
11.08.2017 13:00:00 23,6 11,3 25,7 36 19 68 37 SW 1015,4 31 55 0,0
11.08.2017 12:00:00 23,0 12,0 24,9 43 23 75 41 SW 1015,5 20 58 0,0
11.08.2017 11:00:00 24,1 10,4 24,5 39 21 76 41 SSW 1015,0 20 60 0,0
11.08.2017 10:00:00 23,2 10,9 22,9 37 20 68 37 SSW 1014,8 19 58 0,0
11.08.2017 09:00:00 22,4 11,8 22,2 32 17 58 31 SSW 1015,0 41 45 0,0
11.08.2017 08:00:00 21,8 12,1 21,0 35 19 55 30 SSW 1014,6 48 60 0,0
11.08.2017 07:00:00 21,0 11,9 20,5 31 17 56 30 SSW 1014,4 59 1 0,0
11.08.2017 06:00:00 21,0 11,9 20,6 31 17 53 29 SSW 1014,1 60 0 -
11.08.2017 05:00:00 21,4 12,5 21,0 32 18 54 29 SSW 1014,0 46 0 0,0
11.08.2017 04:00:00 21,7 13,1 21,5 28 15 49 26 SSW 1014,5 52 0 0,0
11.08.2017 03:00:00 21,9 13,3 21,6 23 13 51 28 SSW 1014,8 51 0 0,0
11.08.2017 02:00:00 22,4 13,5 21,7 24 13 44 24 SSW 1015,1 46 0 0,0
11.08.2017 01:00:00 22,3 13,1 21,6 24 13 45 24 S 1015,6 53 0 0,0
11.08.2017 00:00:00 22,1 12,6 21,4 21 11 45 24 S 1015,7 53 0 0,0
10.08.2017 23:00:00 21,7 13,1 21,5 22 12 50 27 SSW 1015,8 52 0 0,0
10.08.2017 22:00:00 22,0 11,7 21,4 22 12 39 21 SSW 1015,3 60 0 0,0
10.08.2017 21:00:00 22,1 12,6 21,8 12 7 33 18 SSW 1014,5 52 0 0,0
10.08.2017 20:00:00 23,0 13,2 23,2 13 7 50 27 SW 1014,3 60 49 0,0
10.08.2017 19:00:00 25,2 11,7 25,7 24 13 51 28 SW 1013,9 43 39 0,0
10.08.2017 18:00:00 25,7 13,9 27,7 26 14 66 35 SW 1014,1 19 60 0,0
10.08.2017 17:00:00 25,2 14,3 28,2 38 20 66 36 SW 1013,8 20 60 0,0

tt = Température de l'air
td = dewpoint
tt 5cm = Température de l'air 5cm
ff = Vitesse du vent
fx = gusts
dd = Direction du vent
ppp = reduced air pressure
vv = visibility
sd = Ensoleillement
rr = Quantités de précipitations

stations d'obs. à proximité